[[{"header":{"parameterUnit":"m.s-1","parameterCategory":2,"la1":30.2991,"la2":30.254,"lo1":-89.0895,"lo2":-89.0444,"dy":0.0017,"dx":0.0017,"nx":28,"ny":28,"refTime":"2024-09-25T21:00:00:Z","depth":"0","parameterNumber":2,"parameterNumberName":"U-component_of_CURRENTS"},"data":[0,0,0,0,0,0,0,0,0,0,0,0,0,0,0,0,0,0,0,0,0,0,0,0,0,0,0,0,0,0,0,0,0,0,0,0,0,0,0,0,0,0,0,0,0,0,0,0,0,0,0,0,0,0,0,0,0,0,0.3168,0.3168,0,0.3206,0.3206,0.3206,0.3206,0.3206,0.3206,0.3205,0.3206,0.3206,0.3206,0,0,0,0,0,0,0,0,0,0,0,0,0,0.3111,0.3111,0.3167,0.3168,0.3169,0.3206,0.3206,0.3206,0.3206,0.3206,0.3206,0.3205,0.3206,0.3206,0.3206,0,0,0,0,0,0,0,0,0,0,0,0,0,0.3138,0.3112,0.3167,0.3176,0.3177,0.3206,0.3206,0.3206,0.3206,0.3206,0.3206,0.3205,0.3205,0.3206,0.3206,0.3214,0,0,0.3207,0.3207,0,0,0,0,0,0,0,0,0.3136,0.3139,0.3174,0.3175,0.3177,0.3203,0.3186,0.3208,0.3206,0.3192,0.3205,0.3205,0.3204,0.3204,0.3208,0.3214,0.3214,0.3207,0.3207,0.3207,0.3207,0,0,0,0,0,0,0,0.3134,0.3138,0.3179,0.3175,0.3176,0.3183,0.3186,0.319,0.3196,0.3193,0.3194,0.3203,0.3204,0.3208,0.3208,0.3214,0.3207,0.3207,0.3207,0.3208,0.3262,0.3263,0,0,0,0,0,0,0.3135,0.3136,0.3178,0.3181,0.3159,0.3185,0.3188,0.3193,0.3197,0.3198,0.3203,0.3203,0.3207,0.3208,0.3208,0.3245,0.3207,0.3208,0.3208,0.3261,0.3262,0.3264,0,0,0,0,0,0,0.3134,0.3139,0.3177,0.3162,0.3168,0.3186,0.3191,0.3194,0.3202,0.3206,0.3206,0.3211,0.3207,0.3208,0.3225,0.3244,0.3208,0.3208,0.3259,0.3261,0.3263,0.3302,0,0,0,0,0,0,0.3132,0.3138,0.3141,0.3162,0.3169,0.3201,0.3192,0.3195,0.321,0.321,0.3212,0.3211,0.3207,0.3224,0.3225,0.3244,0.3208,0.3258,0.326,0.3263,0.3299,0.3305,0.331,0,0,0,0,0,0.313,0.3136,0.314,0.3146,0.3172,0.3202,0.3206,0.3215,0.321,0.322,0.3225,0.3211,0.324,0.3226,0.3226,0.3245,0.3257,0.326,0.3262,0.3297,0.3304,0.331,0,0,0,0,0,0,0.3111,0.3138,0.3143,0.3156,0.3181,0.3203,0.3214,0.322,0.3231,0.3231,0.3225,0.3226,0.3254,0.3244,0.3229,0.327,0.3247,0.325,0.3273,0.328,0.3285,0.3293,0.3209,0,0,0,0,0,0.311,0.3122,0.3151,0.3162,0.3176,0.3195,0.3207,0.3218,0.3233,0.3237,0.324,0.3248,0.3266,0.3267,0.3282,0.3296,0.3306,0.3311,0.3316,0.3321,0.3329,0.3363,0.3372,0.3273,0.3273,0.3273,0,0,0.3105,0.3123,0.3129,0.316,0.3178,0.3205,0.3201,0.3227,0.3249,0.3235,0.326,0.3271,0.3277,0.3304,0.3314,0.3295,0.3356,0.3324,0.3328,0.3334,0.3367,0.3376,0.3385,0.3275,0.3275,0.3274,0,0,0.3106,0.312,0.3132,0.3159,0.3194,0.3213,0.3222,0.3251,0.3263,0.3288,0.3294,0.3316,0.3328,0.3345,0.3353,0.3396,0.3392,0.3398,0.3422,0.3455,0.3463,0.3471,0.3503,0.3512,0.3391,0.3392,0.3392,0,0.31,0.3117,0.3141,0.3167,0.3189,0.3218,0.3241,0.3266,0.3296,0.331,0.33,0.335,0.3351,0.3396,0.3411,0.3408,0.3426,0.3394,0.3462,0.3469,0.3476,0.3507,0.3517,0.3394,0.3394,0.3393,0.3393,0,0.3112,0.3132,0.3145,0.3186,0.3215,0.3242,0.3284,0.331,0.3324,0.3346,0.3392,0.3406,0.3431,0.344,0.3435,0.3491,0.3488,0.3472,0.3443,0.3489,0.3518,0.3528,0.3397,0.3396,0.3396,0.3395,0,0,0.3084,0.314,0.3144,0.3162,0.3227,0.3247,0.3298,0.3345,0.3383,0.3407,0.3452,0.3482,0.3493,0.3504,0.3511,0.3536,0.3598,0.3524,0.3524,0.3553,0.3677,0.3674,0.3684,0.3593,0.3595,0.3597,0.3681,0,0.3084,0.312,0.3155,0.3195,0.3218,0.3269,0.3316,0.3366,0.3412,0.3467,0.3492,0.3544,0.3518,0.3543,0.3563,0.3602,0.3626,0.3577,0.3632,0.3634,0.3622,0.3696,0.3677,0.375,0.369,0.3692,0.3693,0,0.308,0.3107,0.3137,0.3197,0.3213,0.3246,0.3325,0.3372,0.3465,0.3506,0.356,0.3596,0.3654,0.3622,0.3693,0.3665,0.3673,0.369,0.3693,0.3683,0.3649,0.3695,0.3771,0.374,0.3709,0.3707,0.3706,0,0.3035,0.309,0.3108,0.3131,0.3209,0.3231,0.3277,0.3374,0.343,0.3543,0.3596,0.3668,0.3713,0.3742,0.3771,0.3741,0.3848,0.3807,0.381,0.381,0.3801,0.3797,0.3852,0.3851,0.3851,0.3851,0.385,0,0.3018,0.303,0.3085,0.3097,0.3131,0.3199,0.3258,0.3329,0.3446,0.3513,0.3606,0.3678,0.3745,0.3808,0.3814,0.3858,0.388,0.384,0.3841,0.3815,0.3811,0.3788,0.3749,0.3854,0.3853,0.3853,0.3852,0,0.2962,0.3,0.3021,0.3087,0.3108,0.3129,0.3235,0.3284,0.341,0.3505,0.3546,0.3705,0.3805,0.3865,0.3941,0.3918,0.3883,0.3959,0.3928,0.3924,0.3879,0.3842,0.3672,0.3573,0.3984,0.3984,0.3985,0,0.2936,0.2939,0.2991,0.2999,0.3024,0.3072,0.311,0.3247,0.3308,0.3507,0.3542,0.3706,0.3811,0.3953,0.3985,0.4037,0.3904,0.4011,0.3942,0.3901,0.3861,0.3633,0.3545,0.3952,0.3952,0.3952,0.3952,0,0.2881,0.2894,0.2908,0.2929,0.2954,0.2987,0.3052,0.3105,0.3259,0.3368,0.3521,0.3643,0.3835,0.3933,0.4029,0.4037,0.3876,0.4012,0.3985,0.3863,0.3604,0.3502,0.3869,0.3953,0.3953,0.3953,0.3953,0.3953,0.2827,0.2817,0.2833,0.2841,0.2866,0.2882,0.2884,0.2985,0.3087,0.3229,0.3414,0.3578,0.3861,0.4029,0.3994,0.4008,0.3863,0.3956,0.3925,0.3702,0.357,0.394,0.4008,0.4008,0.4008,0.4008,0.4009,0,0.2749,0.2743,0.2747,0.2745,0.2725,0.2777,0.2822,0.2821,0.2894,0.3108,0.3259,0.3587,0.3782,0.3942,0.4085,0.3974,0.3737,0.3889,0.3603,0.3526,0.3917,0.3886,0.3913,0.3913,0.3913,0.3913,0.3913,0.3913,0.2706,0.2672,0.2669,0.2602,0.2595,0.2544,0.2545,0.2585,0.2709,0.29,0.3094,0.3301,0.3734,0.4067,0.4067,0.3959,0.3662,0.3521,0.3423,0.3796,0.3799,0.3802,0.3766,0.3768,0.3767,0.2929,0.2923,0.2919]},{"header":{"parameterUnit":"m.s-1","parameterCategory":2,"la1":30.2991,"la2":30.254,"lo1":-89.0895,"lo2":-89.0444,"dy":0.0017,"dx":0.0017,"nx":28,"ny":28,"refTime":"2024-09-25T21:00:00:Z","depth":"0","parameterNumber":3,"parameterNumberName":"V-component_of_CURRENTS"},"data":[0,0,0,0,0,0,0,0,0,0,0,0,0,0,0,0,0,0,0,0,0,0,0,0,0,0,0,0,0,0,0,0,0,0,0,0,0,0,0,0,0,0,0,0,0,0,0,0,0,0,0,0,0,0,0,0,0,0,0.0338,0.0337,0,0.0267,0.0266,0.0265,0.0214,0.0214,0.0214,0.0214,0.0122,0.0119,0.0117,0,0,0,0,0,0,0,0,0,0,0,0,0,0.0359,0.0359,0.0338,0.0337,0.0337,0.0267,0.0266,0.0265,0.0214,0.0214,0.0214,0.0214,0.0122,0.012,0.0117,0,0,0,0,0,0,0,0,0,0,0,0,0,0.0324,0.0359,0.0338,0.0304,0.0301,0.0267,0.0266,0.0264,0.0214,0.0214,0.0214,0.0213,0.0123,0.012,0.0117,0.0104,0,0,0.0107,0.0105,0,0,0,0,0,0,0,0,0.0326,0.0323,0.031,0.0307,0.0303,0.0251,0.024,0.021,0.0215,0.0245,0.0214,0.0213,0.0164,0.0158,0.0143,0.01,0.0096,0.0106,0.0104,0.0103,0.0102,0,0,0,0,0,0,0,0.0328,0.0325,0.0308,0.0309,0.0305,0.0268,0.0263,0.0233,0.0206,0.0243,0.0239,0.0234,0.0162,0.0146,0.014,0.0094,0.0106,0.0103,0.0101,0.01,0.0035,0.0036,0,0,0,0,0,0,0.0345,0.0328,0.031,0.0306,0.0315,0.0269,0.0263,0.0266,0.0207,0.0198,0.0235,0.0232,0.0152,0.0144,0.0137,0.0136,0.0103,0.01,0.0098,0.0035,0.0035,0.0036,0,0,0,0,0,0,0.0346,0.0344,0.0313,0.0316,0.031,0.027,0.0273,0.0265,0.0254,0.0201,0.0192,0.0232,0.0151,0.0142,0.0119,0.0131,0.0098,0.0095,0.0035,0.0035,0.0036,0.0122,0,0,0,0,0,0,0.0347,0.0345,0.0351,0.0318,0.031,0.0307,0.0273,0.0264,0.0252,0.0248,0.0196,0.0186,0.015,0.0125,0.0116,0.0126,0.0093,0.0034,0.0035,0.0035,0.0119,0.0125,0.0131,0,0,0,0,0,0.0348,0.0366,0.0352,0.035,0.0321,0.0308,0.0301,0.0269,0.0252,0.0255,0.0219,0.0188,0.0121,0.0122,0.0112,0.0121,0.0034,0.0035,0.0035,0.0116,0.0124,0.0131,0,0,0,0,0,0,0.0376,0.0361,0.0346,0.0357,0.0338,0.03,0.0299,0.0277,0.025,0.0246,0.0194,0.0183,0.0166,0.0131,0.0134,0.0103,0.0072,0.007,0.0136,0.0143,0.0149,0.0171,0.009,0,0,0,0,0,0.0386,0.0396,0.0371,0.0378,0.0374,0.0337,0.0327,0.0308,0.028,0.0267,0.0231,0.0191,0.0159,0.0143,0.0109,0.0096,0.0059,0.0093,0.01,0.0105,0.0115,0.0067,0.007,0.0038,0.0038,0.0038,0,0,0.0397,0.0391,0.0394,0.0385,0.0366,0.0374,0.033,0.0325,0.0329,0.0262,0.0255,0.0212,0.016,0.0144,0.0133,0.0118,0.0094,0.0106,0.0111,0.0118,0.0068,0.0072,0.0074,0.0038,0.0038,0.0038,0,0,0.0432,0.0422,0.0443,0.0435,0.042,0.0403,0.0407,0.0377,0.0361,0.0348,0.03,0.0268,0.0221,0.0187,0.0163,0.0182,0.0128,0.0168,0.0217,0.0171,0.0174,0.0176,0.0136,0.0134,0.0171,0.0172,0.0172,0,0.0444,0.047,0.0445,0.0463,0.0468,0.0424,0.045,0.0428,0.0393,0.0386,0.0359,0.0287,0.0243,0.0221,0.0225,0.0198,0.0163,0.0197,0.0181,0.0182,0.0182,0.0141,0.0137,0.0176,0.0175,0.0175,0.0175,0,0.0495,0.0514,0.0527,0.054,0.0541,0.0555,0.053,0.0522,0.0496,0.047,0.0441,0.0374,0.0333,0.0309,0.0272,0.0255,0.0226,0.0195,0.0167,0.0191,0.0145,0.014,0.0182,0.018,0.0179,0.0178,0,0,0.0528,0.0559,0.0563,0.0588,0.0586,0.0596,0.0603,0.0601,0.0611,0.0556,0.0559,0.0489,0.0446,0.0416,0.0358,0.0314,0.0283,0.0263,0.0258,0.0234,0.0185,0.0167,0.0158,0.0247,0.0247,0.0246,0.0154,0,0.0575,0.0638,0.0636,0.0693,0.0726,0.0698,0.0712,0.0699,0.0676,0.0665,0.0584,0.0563,0.0489,0.0471,0.0415,0.0318,0.0272,0.0311,0.0157,0.0153,0.0142,0.0153,0.019,0.0112,0.0148,0.0147,0.0147,0,0.0625,0.0666,0.0734,0.0782,0.0793,0.0814,0.0836,0.0846,0.0812,0.0793,0.0749,0.0683,0.0613,0.0545,0.0392,0.042,0.0315,0.0231,0.0225,0.0176,0.0125,0.0091,0.0099,-0.0065,0.0137,0.0138,0.0139,0,0.0671,0.0733,0.0796,0.0812,0.0853,0.0873,0.0891,0.0882,0.0913,0.0878,0.0888,0.0782,0.0739,0.0592,0.0417,0.0404,0.0245,0.0202,0.0086,0.0083,0.0069,0.0066,-0.0091,0.0096,0.0096,0.0096,0.0096,0,0.0725,0.0774,0.0823,0.0858,0.0934,0.0935,0.1005,0.1002,0.1019,0.1067,0.0961,0.0969,0.0749,0.0628,0.0454,0.0261,0.027,0.01,0.0059,0.01,0.0101,-0.0081,-0.0189,0.0093,0.0093,0.0094,0.0095,0,0.0762,0.0793,0.0873,0.0934,0.096,0.1013,0.1098,0.1151,0.1149,0.1207,0.1202,0.111,0.0957,0.0728,0.0491,0.0324,0.0029,0.0058,0.0124,0.0093,-0.0169,-0.0273,-0.0472,-0.0577,-0.0084,-0.0085,-0.0086,0,0.0787,0.0832,0.0932,0.0991,0.1023,0.1107,0.1172,0.1212,0.1284,0.1302,0.1341,0.1214,0.1164,0.0811,0.0483,0.0178,-0.0001,0.0002,-0.0022,-0.0174,-0.0321,-0.0379,-0.0457,-0.0009,-0.001,-0.001,-0.001,0,0.0836,0.0868,0.0938,0.1063,0.1147,0.1257,0.1355,0.1436,0.1486,0.1542,0.1594,0.1557,0.1219,0.0945,0.051,0.0277,-0.0114,-0.001,-0.0188,-0.0291,-0.0344,-0.0465,0.004,-0.0011,-0.001,-0.001,-0.001,-0.001,0.0868,0.0927,0.1022,0.1143,0.1249,0.139,0.1504,0.1623,0.1759,0.1883,0.1817,0.1855,0.1424,0.0848,0.0468,-0.0125,-0.0148,-0.0271,-0.0389,-0.0435,-0.0527,-0.0019,-0.0104,-0.0104,-0.0105,-0.0105,-0.0105,0,0.091,0.0986,0.1099,0.1249,0.138,0.143,0.1619,0.1757,0.1945,0.209,0.2165,0.2064,0.1497,0.0909,0.0107,-0.036,-0.0563,-0.063,-0.0708,-0.0777,-0.0334,-0.0319,-0.0429,-0.0429,-0.0428,-0.0428,-0.0428,-0.0428,0.0934,0.1046,0.1113,0.1332,0.1446,0.1646,0.177,0.1981,0.2158,0.2422,0.2551,0.2606,0.2237,0.0629,-0.0401,-0.0671,-0.101,-0.1105,-0.1294,-0.0986,-0.096,-0.0936,-0.0947,-0.1186,-0.1188,-0.1652,-0.1657,-0.1661]}],[{"header":{"parameterUnit":"m.s-1","parameterCategory":2,"la1":30.2991,"la2":30.254,"lo1":-89.0895,"lo2":-89.0444,"dy":0.0017,"dx":0.0017,"nx":28,"ny":28,"refTime":"2024-09-25T21:00:00:Z","depth":"2","parameterNumber":2,"parameterNumberName":"U-component_of_CURRENTS"},"data":[0,0,0,0,0,0,0,0,0,0,0,0,0,0,0,0,0,0,0,0,0,0,0,0,0,0,0,0,0,0,0,0,0,0,0,0,0,0,0,0,0,0,0,0,0,0,0,0,0,0,0,0,0,0,0,0,0,0,0.2999,0.3,0,0.3037,0.3037,0.3037,0.3043,0.3043,0.3043,0.3043,0.3049,0.3049,0.3049,0,0,0,0,0,0,0,0,0,0,0,0,0,0.2945,0.2945,0.2999,0.3,0.3001,0.3037,0.3037,0.3038,0.3043,0.3043,0.3043,0.3043,0.3049,0.3049,0.3049,0,0,0,0,0,0,0,0,0,0,0,0,0,0.2971,0.2946,0.2999,0.301,0.3012,0.3037,0.3037,0.3038,0.3043,0.3043,0.3043,0.3043,0.3049,0.3049,0.3049,0.3053,0,0,0.305,0.305,0,0,0,0,0,0,0,0,0.297,0.2973,0.3008,0.301,0.3011,0.3038,0.302,0.3042,0.3043,0.3028,0.3043,0.3043,0.3044,0.3045,0.3048,0.3053,0.3054,0.305,0.3051,0.3051,0.3051,0,0,0,0,0,0,0,0.2968,0.2971,0.3011,0.3009,0.3011,0.3018,0.3021,0.3025,0.3033,0.3029,0.3031,0.304,0.3045,0.3048,0.3049,0.3054,0.305,0.3051,0.3051,0.3051,0.3106,0.3107,0,0,0,0,0,0,0.2969,0.297,0.301,0.3013,0.2993,0.3019,0.3023,0.3027,0.3034,0.3036,0.304,0.304,0.3048,0.3048,0.3049,0.309,0.3051,0.3051,0.3051,0.3105,0.3106,0.3108,0,0,0,0,0,0,0.2967,0.2972,0.3009,0.2995,0.3,0.302,0.3025,0.3028,0.304,0.3043,0.3044,0.305,0.3048,0.3048,0.3067,0.3088,0.3051,0.3051,0.3103,0.3105,0.3107,0.3148,0,0,0,0,0,0,0.2966,0.2971,0.2975,0.2995,0.3001,0.3032,0.3026,0.3029,0.3047,0.3047,0.3052,0.3052,0.3048,0.3067,0.3067,0.3088,0.3052,0.3102,0.3104,0.3106,0.3145,0.3151,0.3156,0,0,0,0,0,0.2963,0.297,0.2975,0.298,0.3006,0.3033,0.3037,0.3049,0.3047,0.3058,0.3065,0.3052,0.3082,0.3068,0.3069,0.309,0.3101,0.3103,0.3106,0.3143,0.315,0.3156,0,0,0,0,0,0,0.2947,0.2972,0.2978,0.2992,0.3015,0.3035,0.3048,0.3055,0.3068,0.3071,0.3066,0.3067,0.3097,0.3087,0.3071,0.3114,0.3091,0.3094,0.3118,0.3125,0.3131,0.3138,0.3052,0,0,0,0,0,0.2947,0.2959,0.2986,0.2998,0.3011,0.3031,0.3043,0.3055,0.307,0.3076,0.3081,0.309,0.3108,0.3111,0.3125,0.314,0.3149,0.3156,0.3162,0.3166,0.3174,0.3207,0.3216,0.3117,0.3117,0.3117,0,0,0.2943,0.296,0.2967,0.2996,0.3014,0.304,0.3037,0.3065,0.3087,0.3075,0.3102,0.3114,0.312,0.3147,0.3158,0.3139,0.3201,0.317,0.3174,0.318,0.321,0.322,0.3229,0.3119,0.3119,0.3118,0,0,0.2945,0.2961,0.2973,0.2998,0.3033,0.3051,0.3062,0.309,0.3104,0.3131,0.3137,0.3161,0.3174,0.319,0.3197,0.324,0.3237,0.3245,0.327,0.3301,0.3309,0.3317,0.3347,0.3357,0.3239,0.3239,0.3239,0,0.2942,0.2958,0.2981,0.3006,0.3028,0.3058,0.3081,0.3105,0.3136,0.3151,0.3145,0.3195,0.3196,0.324,0.3256,0.3253,0.3271,0.3242,0.3308,0.3316,0.3323,0.3352,0.3362,0.3241,0.3241,0.324,0.324,0,0.2954,0.2973,0.2987,0.3026,0.3054,0.3082,0.3122,0.3149,0.3167,0.3189,0.3237,0.3251,0.3277,0.3286,0.3282,0.3337,0.3335,0.3318,0.3289,0.3335,0.3363,0.3373,0.3244,0.3243,0.3243,0.3242,0,0,0.2929,0.2982,0.2987,0.3004,0.3067,0.3087,0.3138,0.3183,0.3222,0.3249,0.3295,0.3326,0.334,0.335,0.3358,0.3382,0.3444,0.3372,0.3372,0.3399,0.3522,0.3511,0.3521,0.344,0.3442,0.3444,0.3524,0,0.293,0.2964,0.2998,0.3037,0.3059,0.3109,0.3155,0.3205,0.3252,0.3307,0.3334,0.3387,0.3363,0.3391,0.3411,0.3449,0.3472,0.3425,0.3476,0.3478,0.346,0.3532,0.3269,0.3318,0.3534,0.3535,0.3537,0,0.2927,0.2952,0.2983,0.304,0.3056,0.3089,0.3168,0.3214,0.3305,0.3348,0.3404,0.344,0.3498,0.3468,0.3538,0.3511,0.352,0.3535,0.3538,0.352,0.3486,0.3307,0.3328,0.3553,0.3552,0.355,0.3549,0,0.2885,0.2938,0.2956,0.2978,0.3054,0.3078,0.3124,0.3219,0.3274,0.3387,0.344,0.3512,0.3559,0.3587,0.3615,0.3587,0.3689,0.3648,0.3645,0.3644,0.3426,0.3404,0.3691,0.3691,0.3691,0.3691,0.369,0,0.2869,0.2883,0.2936,0.2949,0.2983,0.305,0.3111,0.3181,0.3296,0.3361,0.3454,0.3525,0.3591,0.3652,0.3657,0.3696,0.372,0.3674,0.3673,0.3435,0.3414,0.3614,0.3604,0.3694,0.3693,0.3692,0.3692,0,0.2818,0.2855,0.2875,0.2941,0.2963,0.2987,0.3092,0.314,0.3265,0.3359,0.3401,0.3554,0.365,0.3708,0.378,0.3753,0.379,0.3787,0.3514,0.348,0.3711,0.3702,0.3802,0.3802,0.3803,0.3803,0.3803,0,0.2793,0.2797,0.2849,0.2859,0.2885,0.2936,0.2974,0.3107,0.3167,0.3361,0.3395,0.3555,0.3649,0.378,0.3772,0.3809,0.3831,0.3573,0.3471,0.3738,0.3727,0.3717,0.3708,0.3194,0.3189,0.3185,0.3182,0,0.2742,0.2756,0.277,0.2793,0.282,0.2853,0.2919,0.297,0.312,0.3224,0.3369,0.3481,0.3628,0.3582,0.3652,0.362,0.3552,0.35,0.3843,0.3224,0.3176,0.3162,0.317,0.3148,0.3151,0.3154,0.3156,0.3157,0.2691,0.2682,0.2699,0.2711,0.2736,0.2751,0.2753,0.284,0.2933,0.304,0.3227,0.3293,0.3376,0.3373,0.3289,0.3215,0.3451,0.3288,0.3294,0.3305,0.3238,0.3196,0.3158,0.3161,0.3164,0.3167,0.3169,0,0.2611,0.2612,0.2617,0.2617,0.2591,0.2651,0.2693,0.2664,0.2715,0.2857,0.2969,0.2815,0.285,0.2901,0.2762,0.2798,0.2698,0.267,0.2509,0.255,0.2585,0.2473,0.2193,0.2189,0.2186,0.2182,0,0,0.2569,0.2533,0.253,0.2463,0.2465,0.2403,0.2402,0.2389,0.2445,0.2448,0.2475,0.2722,0.2862,0.2482,0.2465,0.2302,0.2385,0.2211,0.3012,0.2867,0.2895,0.2986,0.2868,0,0,0,0,0]},{"header":{"parameterUnit":"m.s-1","parameterCategory":2,"la1":30.2991,"la2":30.254,"lo1":-89.0895,"lo2":-89.0444,"dy":0.0017,"dx":0.0017,"nx":28,"ny":28,"refTime":"2024-09-25T21:00:00:Z","depth":"2","parameterNumber":3,"parameterNumberName":"V-component_of_CURRENTS"},"data":[0,0,0,0,0,0,0,0,0,0,0,0,0,0,0,0,0,0,0,0,0,0,0,0,0,0,0,0,0,0,0,0,0,0,0,0,0,0,0,0,0,0,0,0,0,0,0,0,0,0,0,0,0,0,0,0,0,0,0.0311,0.0311,0,0.0242,0.0241,0.024,0.0192,0.0191,0.0191,0.0191,0.0101,0.0099,0.0096,0,0,0,0,0,0,0,0,0,0,0,0,0,0.0333,0.0333,0.0311,0.031,0.031,0.0242,0.0241,0.024,0.0192,0.0191,0.0191,0.0191,0.0101,0.0099,0.0096,0,0,0,0,0,0,0,0,0,0,0,0,0,0.0298,0.0333,0.0311,0.0279,0.0275,0.0242,0.0241,0.024,0.0192,0.0191,0.0191,0.0191,0.0102,0.0099,0.0096,0.0082,0,0,0.0086,0.0084,0,0,0,0,0,0,0,0,0.03,0.0297,0.0284,0.0281,0.0277,0.0226,0.0215,0.0186,0.0192,0.0222,0.0191,0.0191,0.0142,0.0136,0.0121,0.0078,0.0074,0.0085,0.0084,0.0082,0.0081,0,0,0,0,0,0,0,0.0303,0.0299,0.0282,0.0284,0.0279,0.0244,0.0239,0.0209,0.0183,0.0219,0.0216,0.0211,0.014,0.0125,0.0119,0.0073,0.0086,0.0083,0.0081,0.0079,0.0014,0.0014,0,0,0,0,0,0,0.0319,0.0302,0.0284,0.028,0.029,0.0244,0.0239,0.0242,0.0184,0.0175,0.0211,0.0209,0.013,0.0123,0.0115,0.0113,0.0082,0.0079,0.0077,0.0014,0.0014,0.0014,0,0,0,0,0,0,0.0319,0.0318,0.0287,0.029,0.0284,0.0245,0.0248,0.0241,0.023,0.0178,0.0169,0.0209,0.013,0.012,0.0098,0.0109,0.0078,0.0075,0.0013,0.0014,0.0014,0.0097,0,0,0,0,0,0,0.0321,0.0319,0.0325,0.0292,0.0285,0.028,0.0248,0.024,0.0228,0.0224,0.0173,0.0164,0.0129,0.0103,0.0094,0.0103,0.0072,0.0013,0.0014,0.0014,0.0094,0.0101,0.0106,0,0,0,0,0,0.0322,0.0338,0.0326,0.0323,0.0295,0.0281,0.0275,0.0243,0.0228,0.0231,0.0195,0.0166,0.0099,0.0101,0.0091,0.0099,0.0013,0.0013,0.0014,0.0092,0.0099,0.0106,0,0,0,0,0,0,0.0348,0.0334,0.0319,0.033,0.0311,0.0274,0.0273,0.0252,0.0225,0.0222,0.0171,0.016,0.0143,0.0109,0.0112,0.008,0.005,0.0049,0.0113,0.0119,0.0125,0.0146,0.0069,0,0,0,0,0,0.0358,0.0368,0.0343,0.035,0.0346,0.031,0.03,0.0282,0.0254,0.0242,0.0206,0.0167,0.0136,0.012,0.0086,0.0073,0.0035,0.0069,0.0075,0.008,0.009,0.0041,0.0044,0.0016,0.0016,0.0016,0,0,0.0369,0.0363,0.0366,0.0356,0.0338,0.0345,0.0303,0.0298,0.0301,0.0236,0.0229,0.0187,0.0136,0.012,0.0109,0.0095,0.0069,0.0081,0.0086,0.0092,0.0042,0.0045,0.0047,0.0016,0.0016,0.0016,0,0,0.0402,0.0392,0.0412,0.0405,0.039,0.0373,0.0377,0.0348,0.0332,0.0319,0.0272,0.0241,0.0195,0.0161,0.0137,0.0154,0.0101,0.014,0.0187,0.0141,0.0143,0.0144,0.0105,0.0102,0.0144,0.0144,0.0144,0,0.0414,0.0439,0.0414,0.0432,0.0436,0.0394,0.0419,0.0396,0.0362,0.0355,0.033,0.0258,0.0215,0.0191,0.0195,0.0168,0.0134,0.0169,0.0149,0.015,0.015,0.0109,0.0105,0.0148,0.0147,0.0147,0.0147,0,0.0462,0.0481,0.0493,0.0506,0.0505,0.052,0.0495,0.0486,0.0461,0.0436,0.0406,0.034,0.03,0.0276,0.0241,0.0221,0.0194,0.0164,0.0137,0.0158,0.0113,0.0107,0.0154,0.0152,0.0151,0.015,0,0,0.0494,0.0524,0.0528,0.0552,0.055,0.0559,0.0564,0.0561,0.057,0.0516,0.0517,0.0448,0.0408,0.0377,0.0321,0.0276,0.0244,0.0227,0.0223,0.0198,0.0144,0.0127,0.0118,0.0209,0.0208,0.0208,0.0115,0,0.054,0.06,0.0598,0.0653,0.0685,0.0657,0.0668,0.0655,0.0632,0.062,0.054,0.0518,0.0447,0.043,0.0374,0.0278,0.0231,0.0272,0.0119,0.0115,0.0104,0.0112,0.0126,0.0045,0.0109,0.0108,0.0107,0,0.0588,0.0627,0.0693,0.0739,0.0749,0.077,0.079,0.0798,0.0762,0.0743,0.0699,0.0634,0.0563,0.0499,0.0346,0.0375,0.0272,0.019,0.0183,0.0135,0.0087,0.0031,0.0031,0.0097,0.0098,0.0098,0.0099,0,0.0633,0.0692,0.0754,0.0769,0.0808,0.0827,0.0845,0.0834,0.0862,0.0825,0.0834,0.0728,0.0686,0.0541,0.0369,0.0357,0.0197,0.0156,0.0042,0.0039,0.0006,0.0002,0.005,0.005,0.005,0.005,0.005,0,0.0686,0.0734,0.0781,0.0816,0.0889,0.0889,0.0957,0.0952,0.0966,0.1011,0.0906,0.091,0.0694,0.0574,0.0403,0.0212,0.022,0.0054,0.0015,0.0035,0.0035,0.0042,0.0042,0.0047,0.0047,0.0048,0.0049,0,0.0724,0.0753,0.0831,0.089,0.0915,0.0967,0.1049,0.1098,0.1094,0.1148,0.1143,0.1048,0.0894,0.0669,0.0435,0.0272,0.008,0.0008,0.0052,0.0019,-0.0056,-0.0051,-0.0129,-0.013,-0.0131,-0.0132,-0.0133,0,0.0748,0.0793,0.089,0.0948,0.0979,0.1061,0.1123,0.116,0.1227,0.1239,0.1276,0.1147,0.1089,0.0739,0.0415,0.0113,0.0077,-0.0072,-0.0097,-0.0043,-0.0075,-0.0067,-0.006,-0.0112,-0.0112,-0.0113,-0.0113,0,0.0798,0.0829,0.0897,0.1019,0.1101,0.1207,0.1301,0.1379,0.1423,0.1472,0.1514,0.147,0.1131,0.083,0.0402,0.0189,-0.0026,-0.0091,-0.0055,-0.006,-0.0033,-0.0061,-0.0054,-0.0117,-0.0117,-0.0116,-0.0116,-0.0116,0.0829,0.0887,0.098,0.1099,0.1201,0.1338,0.1447,0.1551,0.1676,0.176,0.1702,0.165,0.1273,0.0745,0.0353,-0.0063,-0.0036,-0.0177,-0.0174,-0.017,-0.0143,-0.0119,-0.0214,-0.0214,-0.0214,-0.0214,-0.0214,0,0.087,0.0946,0.1056,0.1203,0.1326,0.1378,0.1559,0.1668,0.1832,0.1897,0.1938,0.1591,0.1235,0.0806,0.0195,-0.0164,-0.0203,-0.0284,-0.0247,-0.024,-0.0235,-0.021,-0.03,-0.0301,-0.0302,-0.0303,0,0,0.0893,0.1001,0.1066,0.1278,0.1392,0.1576,0.1695,0.185,0.1952,0.2032,0.2012,0.1919,0.1393,0.0937,0.0423,0.0072,0.0001,-0.0008,0.01,0.0211,0.0221,-0.0137,-0.0086,0,0,0,0,0]}],[{"header":{"parameterUnit":"m.s-1","parameterCategory":2,"la1":30.2991,"la2":30.254,"lo1":-89.0895,"lo2":-89.0444,"dy":0.0017,"dx":0.0017,"nx":28,"ny":28,"refTime":"2024-09-25T21:00:00:Z","depth":"4","parameterNumber":2,"parameterNumberName":"U-component_of_CURRENTS"},"data":[0,0,0,0,0,0,0,0,0,0,0,0,0,0,0,0,0,0,0,0,0,0,0,0,0,0,0,0,0,0,0,0,0,0,0,0,0,0,0,0,0,0,0,0,0,0,0,0,0,0,0,0,0,0,0,0,0,0,0.1865,0.1866,0,0.1946,0.1947,0.1947,0.2018,0.2019,0.202,0.2021,0.2115,0.2116,0.2118,0,0,0,0,0,0,0,0,0,0,0,0,0,0.1772,0.1773,0.1865,0.1866,0.1867,0.1946,0.1947,0.1948,0.2018,0.2019,0.202,0.2021,0.2114,0.2116,0.2118,0,0,0,0,0,0,0,0,0,0,0,0,0,0.1826,0.1773,0.1864,0.1913,0.1919,0.1946,0.1947,0.1948,0.2018,0.2019,0.2021,0.2022,0.2114,0.2116,0.2118,0.2102,0,0,0.2125,0.2126,0,0,0,0,0,0,0,0,0.1823,0.1829,0.1905,0.191,0.1916,0.1975,0.1949,0.2001,0.2017,0.1978,0.2021,0.2023,0.207,0.2076,0.2084,0.2106,0.211,0.2125,0.2127,0.2128,0.2129,0,0,0,0,0,0,0,0.1819,0.1826,0.1894,0.1906,0.1913,0.1932,0.1941,0.1959,0.2012,0.1981,0.1987,0.1999,0.2073,0.2082,0.2087,0.2112,0.2125,0.2127,0.2129,0.213,0.2257,0.2259,0,0,0,0,0,0,0.1812,0.1823,0.1892,0.1897,0.1875,0.1932,0.1943,0.1953,0.2012,0.2023,0.1998,0.2002,0.2077,0.2084,0.2091,0.2192,0.2128,0.213,0.2131,0.2255,0.2257,0.226,0,0,0,0,0,0,0.181,0.1817,0.1889,0.1864,0.1874,0.1933,0.1944,0.1954,0.2006,0.2025,0.2036,0.2045,0.2078,0.2087,0.2149,0.2191,0.2131,0.2133,0.2253,0.2256,0.2259,0.2319,0,0,0,0,0,0,0.1807,0.1816,0.184,0.1863,0.1876,0.1931,0.1943,0.1954,0.201,0.2017,0.2068,0.2076,0.208,0.2145,0.2151,0.2194,0.2135,0.225,0.2254,0.2258,0.2315,0.2324,0.2332,0,0,0,0,0,0.1803,0.1822,0.184,0.185,0.19,0.1933,0.1941,0.1985,0.2011,0.2038,0.208,0.2077,0.2173,0.2149,0.2155,0.2199,0.2248,0.2253,0.2257,0.2311,0.2322,0.2331,0,0,0,0,0,0,0.1797,0.1832,0.1852,0.1884,0.192,0.1946,0.1982,0.2007,0.206,0.2084,0.2098,0.2109,0.2182,0.2181,0.2153,0.2248,0.2212,0.2218,0.225,0.2261,0.2269,0.2271,0.2137,0,0,0,0,0,0.1804,0.1833,0.1864,0.1896,0.1917,0.1956,0.1984,0.2015,0.2055,0.2082,0.2119,0.2159,0.2196,0.2222,0.2253,0.2298,0.2299,0.2333,0.2341,0.2348,0.2355,0.239,0.2402,0.2274,0.2274,0.2274,0,0,0.1812,0.1837,0.1855,0.1898,0.1932,0.1967,0.1978,0.2033,0.2074,0.2082,0.2164,0.2195,0.2217,0.2276,0.2308,0.2286,0.2388,0.2354,0.236,0.2363,0.2396,0.2408,0.2419,0.2277,0.2277,0.2276,0,0,0.1827,0.1865,0.189,0.1924,0.1982,0.2004,0.2029,0.2082,0.2124,0.219,0.2214,0.2271,0.2326,0.2351,0.2367,0.2439,0.2435,0.2459,0.25,0.2534,0.2545,0.2554,0.2575,0.2586,0.2459,0.2459,0.2459,0,0.1841,0.1871,0.1905,0.1938,0.1974,0.2025,0.2062,0.2106,0.2178,0.2215,0.2229,0.2336,0.2357,0.2422,0.2454,0.2458,0.2475,0.2457,0.2544,0.2553,0.2562,0.2581,0.2592,0.2462,0.2462,0.2461,0.2461,0,0.186,0.1904,0.1926,0.1983,0.2025,0.2071,0.2127,0.2186,0.2243,0.2283,0.2379,0.2416,0.2476,0.2497,0.25,0.2578,0.2571,0.2553,0.2514,0.2578,0.2595,0.2605,0.2467,0.2466,0.2465,0.2464,0,0,0.1839,0.1922,0.1936,0.1971,0.2057,0.2086,0.2167,0.2239,0.2304,0.2378,0.2455,0.2525,0.256,0.2581,0.2602,0.2634,0.271,0.2629,0.2629,0.2643,0.279,0.2627,0.2623,0.2714,0.2716,0.2717,0.2779,0,0.185,0.1908,0.1954,0.2027,0.2061,0.2138,0.2205,0.2285,0.2363,0.2453,0.2507,0.2595,0.2587,0.264,0.2671,0.2711,0.274,0.2695,0.2732,0.2733,0.2575,0.263,0.2724,0.2787,0.2789,0.2791,0.2792,0,0.1846,0.1889,0.1955,0.2049,0.2075,0.2135,0.2257,0.2326,0.2452,0.2519,0.2609,0.2663,0.2749,0.2727,0.281,0.2788,0.2798,0.281,0.2812,0.2644,0.2589,0.271,0.281,0.2808,0.2807,0.2806,0.2805,0,0.1794,0.1887,0.1941,0.1975,0.2089,0.215,0.2225,0.2354,0.2429,0.2581,0.2652,0.2749,0.282,0.2853,0.2885,0.2867,0.2956,0.2923,0.2781,0.277,0.287,0.2859,0.2969,0.2969,0.2969,0.2969,0.2968,0,0.1765,0.1812,0.193,0.1959,0.2042,0.2137,0.2247,0.2341,0.2487,0.2567,0.269,0.2758,0.286,0.2917,0.2922,0.288,0.2984,0.2796,0.2776,0.2895,0.2887,0.2877,0.2866,0.2971,0.297,0.297,0.297,0,0.1693,0.1771,0.1838,0.1969,0.202,0.2083,0.2251,0.2319,0.2478,0.259,0.2646,0.2799,0.2871,0.2936,0.3002,0.291,0.29,0.2857,0.2994,0.298,0.2683,0.2674,0.2698,0.2693,0.2688,0.2685,0.2681,0,0.1656,0.1685,0.1828,0.1873,0.1942,0.2055,0.2128,0.2301,0.2369,0.2579,0.2606,0.2755,0.2827,0.2788,0.2871,0.287,0.2832,0.2801,0.2723,0.2677,0.2657,0.2655,0.2652,0.2674,0.2673,0.2672,0.2671,0,0.1582,0.1651,0.1704,0.1799,0.1883,0.1959,0.2076,0.2117,0.2297,0.2457,0.2515,0.2562,0.2637,0.2681,0.2706,0.2695,0.2807,0.2754,0.2762,0.2689,0.2649,0.2633,0.2635,0.2656,0.2658,0.2659,0.266,0,0.153,0.1548,0.1631,0.1697,0.1794,0.1831,0.1911,0.1985,0.2078,0.23,0.2312,0.2464,0.2608,0.2591,0.261,0.2596,0.2549,0.2447,0.247,0.2488,0.2389,0.2307,0.2196,0,0,0,0,0,0.1464,0.1467,0.152,0.158,0.1667,0.1724,0.1856,0.1936,0.2107,0.209,0.2199,0.2259,0.2307,0.2391,0.2333,0.2515,0.2557,0.2435,0.2451,0.2571,0.2589,0.2491,0,0,0,0,0,0,0.1417,0.146,0.1473,0.1467,0.1485,0.1564,0.1641,0.1757,0.176,0.1942,0.1984,0.2117,0.2202,0.2315,0.2288,0.231,0.2272,0.2535,0.2529,0.2561,0.2577,0.2591,0.2497,0,0,0,0,0]},{"header":{"parameterUnit":"m.s-1","parameterCategory":2,"la1":30.2991,"la2":30.254,"lo1":-89.0895,"lo2":-89.0444,"dy":0.0017,"dx":0.0017,"nx":28,"ny":28,"refTime":"2024-09-25T21:00:00:Z","depth":"4","parameterNumber":3,"parameterNumberName":"V-component_of_CURRENTS"},"data":[0,0,0,0,0,0,0,0,0,0,0,0,0,0,0,0,0,0,0,0,0,0,0,0,0,0,0,0,0,0,0,0,0,0,0,0,0,0,0,0,0,0,0,0,0,0,0,0,0,0,0,0,0,0,0,0,0,0,0.0215,0.0214,0,0.0172,0.0172,0.0171,0.0144,0.0144,0.0144,0.0144,0.0077,0.0075,0.0073,0,0,0,0,0,0,0,0,0,0,0,0,0,0.0227,0.0227,0.0215,0.0214,0.0214,0.0172,0.0171,0.0171,0.0144,0.0144,0.0144,0.0144,0.0077,0.0075,0.0073,0,0,0,0,0,0,0,0,0,0,0,0,0,0.0206,0.0227,0.0215,0.0196,0.0194,0.0172,0.0171,0.0171,0.0144,0.0144,0.0144,0.0144,0.0078,0.0076,0.0073,0.0059,0,0,0.0065,0.0064,0,0,0,0,0,0,0,0,0.0207,0.0206,0.0199,0.0197,0.0195,0.0164,0.0151,0.0132,0.0144,0.0162,0.0144,0.0144,0.0104,0.01,0.0091,0.0056,0.0053,0.0065,0.0063,0.0062,0.0062,0,0,0,0,0,0,0,0.0209,0.0207,0.0197,0.0199,0.0196,0.0174,0.0171,0.0147,0.0133,0.0161,0.0159,0.0155,0.0103,0.0094,0.0089,0.0052,0.0065,0.0063,0.0061,0.006,0.0004,0.0004,0,0,0,0,0,0,0.0219,0.0209,0.0198,0.0196,0.0202,0.0174,0.0171,0.0173,0.0134,0.0128,0.0156,0.0154,0.0098,0.0092,0.0087,0.0082,0.0062,0.006,0.0058,0.0004,0.0004,0.0004,0,0,0,0,0,0,0.0219,0.0218,0.02,0.0201,0.0198,0.0175,0.0177,0.0173,0.0168,0.0131,0.0124,0.0157,0.0098,0.009,0.0073,0.0079,0.0059,0.0056,0.0004,0.0004,0.0004,0.0065,0,0,0,0,0,0,0.022,0.0219,0.0225,0.0202,0.0198,0.0196,0.0177,0.0172,0.0167,0.0165,0.0129,0.0123,0.0097,0.0077,0.0071,0.0075,0.0054,0.0004,0.0004,0.0004,0.0063,0.0067,0.007,0,0,0,0,0,0.022,0.0231,0.0226,0.0224,0.0207,0.0196,0.0192,0.0174,0.0167,0.0169,0.0146,0.0124,0.0073,0.0076,0.0068,0.0072,0.0004,0.0004,0.0004,0.0061,0.0066,0.007,0,0,0,0,0,0,0.0237,0.0229,0.0222,0.0229,0.0217,0.0192,0.0193,0.018,0.0163,0.0164,0.0127,0.0119,0.0104,0.0079,0.0083,0.0054,0.0034,0.0032,0.0079,0.0084,0.0088,0.0103,0.0052,0,0,0,0,0,0.0245,0.0253,0.0237,0.0242,0.024,0.0218,0.0212,0.0202,0.0183,0.0176,0.0151,0.0123,0.0097,0.0085,0.0059,0.0047,0.0014,0.0042,0.0046,0.005,0.0056,0.001,0.001,0.0004,0.0004,0.0004,0,0,0.0252,0.0249,0.0253,0.0246,0.0236,0.0242,0.0214,0.0213,0.0215,0.0171,0.0168,0.0137,0.0097,0.0082,0.0073,0.0064,0.0034,0.005,0.0053,0.0057,0.001,0.001,0.0011,0.0005,0.0005,0.0005,0,0,0.0273,0.027,0.0284,0.028,0.0273,0.0262,0.0266,0.0248,0.0238,0.023,0.0197,0.0172,0.0139,0.0109,0.0089,0.0098,0.0056,0.0089,0.0122,0.0077,0.0078,0.0077,0.0041,0.0037,0.0091,0.0091,0.0091,0,0.0282,0.03,0.0285,0.0298,0.0303,0.0277,0.0296,0.028,0.0258,0.0253,0.0239,0.0184,0.015,0.0125,0.0128,0.0108,0.0078,0.011,0.0083,0.0082,0.0081,0.0043,0.0038,0.0094,0.0094,0.0094,0.0093,0,0.0312,0.0328,0.0337,0.0349,0.0351,0.0363,0.0346,0.0342,0.0329,0.0312,0.0288,0.0237,0.0207,0.0187,0.0161,0.0136,0.0117,0.0094,0.0075,0.0085,0.0045,0.0038,0.0099,0.0097,0.0097,0.0096,0,0,0.0328,0.0356,0.036,0.0382,0.0384,0.0392,0.0395,0.0394,0.0402,0.0364,0.0365,0.0309,0.0281,0.0257,0.0213,0.017,0.0135,0.0136,0.0133,0.0107,0.0042,0.0032,0.0024,0.0108,0.0107,0.0106,0.0019,0,0.0359,0.0403,0.0406,0.045,0.0475,0.0461,0.0469,0.0461,0.0447,0.0438,0.0375,0.036,0.0307,0.0297,0.0245,0.0165,0.012,0.0161,0.0029,0.0026,0.0021,0.0017,0.0104,0.0014,0.0012,0.0011,0.001,0,0.0387,0.0418,0.0471,0.0513,0.0523,0.0543,0.0563,0.057,0.0543,0.0531,0.0496,0.0447,0.0385,0.0339,0.0203,0.0233,0.0147,0.0077,0.0071,0.0037,0.0004,-0.0002,-0.0002,-0.0001,-0.0,0.0,0.0001,0,0.0414,0.0464,0.0515,0.0528,0.0566,0.0587,0.0607,0.06,0.0623,0.0596,0.0604,0.0513,0.048,0.0356,0.0213,0.0209,0.0058,0.0032,-0.0061,-0.0063,-0.0054,-0.0053,-0.0066,-0.0066,-0.0066,-0.0065,-0.0065,0,0.0445,0.0486,0.0536,0.0564,0.0629,0.0636,0.0696,0.0695,0.0708,0.074,0.0662,0.0653,0.0483,0.0375,0.0235,0.0071,0.0073,-0.0055,-0.0087,-0.0026,-0.0021,-0.0058,-0.0056,-0.0069,-0.0068,-0.0067,-0.0067,0,0.0463,0.0494,0.056,0.0619,0.0646,0.0693,0.0774,0.0811,0.0815,0.0852,0.085,0.076,0.0619,0.0439,0.0236,0.0113,-0.0051,-0.0111,-0.0022,-0.0048,-0.0148,-0.0142,-0.0221,-0.0223,-0.0224,-0.0224,-0.0225,0,0.0475,0.0512,0.0605,0.0657,0.0692,0.0769,0.0824,0.0863,0.0908,0.0914,0.0929,0.0817,0.073,0.0447,0.0245,-0.0026,-0.007,-0.0158,-0.0166,-0.0141,-0.0165,-0.0157,-0.015,-0.0226,-0.0227,-0.0227,-0.0227,0,0.05,0.0535,0.0591,0.07,0.0776,0.0867,0.0947,0.0991,0.1028,0.1033,0.1,0.0852,0.0691,0.0458,0.0248,0.005,-0.0104,-0.0169,-0.0168,-0.0177,-0.0148,-0.0169,-0.0161,-0.023,-0.023,-0.023,-0.0229,0,0.0517,0.056,0.0639,0.0736,0.0837,0.0931,0.0977,0.1029,0.1075,0.1075,0.106,0.0887,0.0788,0.0497,0.0303,0.0107,0.0049,-0.0024,-0.0033,-0.0032,0.0041,0.0106,0.0076,0,0,0,0,0,0.0528,0.0581,0.0671,0.0779,0.0881,0.0948,0.1043,0.1078,0.1113,0.1101,0.1088,0.0938,0.0655,0.0534,0.0338,0.0262,-0.0,0.0022,-0.0092,-0.0248,-0.0245,-0.0193,0,0,0,0,0,0,0.0534,0.0614,0.0666,0.0798,0.0882,0.0999,0.1065,0.1093,0.1089,0.1091,0.095,0.0881,0.0609,0.0773,0.0334,0.0274,0.017,-0.0107,-0.0112,-0.025,-0.0247,-0.0244,-0.019,0,0,0,0,0]}]]